Regional Weather Roundup
Issued by NWS Green Bay, WI

Home | Current Version | Previous Version | Graphics & Text | Print | Product List | Glossary Off
Versions: 1 2 3 4 5 6 7 8 9 10 11 12 13 14 15 16 17 18 19 20 21 22 23 24 25 26 27 28 29 30 31 32 33 34 35 36 37 38 39 40 41 42 43 44 45 46 47 48 49 50

000
ASUS43 KGRB 272159
RWRGRB

NORTH-CENTRAL AND NORTHEAST WISCONSIN REGIONAL WEATHER ROUNDUP
NATIONAL WEATHER SERVICE GREEN BAY WI
500 PM CDT SUN JUL 27 2014

WIZ005-009-010>012-018-019-272300-
NORTH CENTRAL WISCONSIN

CITY           SKY/WX    TMP DP  RH WIND       PRES   REMARKS
IRONWOOD       CLOUDY    61  54  77 NE6       29.97R
MANITOWISH WTR NOT AVBL
ARBOR VITAE    NOT AVBL
EAGLE RIVER    NOT AVBL
LAND O LAKES   NOT AVBL
RHINELANDER    CLOUDY    60  56  86 N10G20    29.93R
PHILLIPS       CLOUDY    60  56  88 N9G17     29.96R
ANTIGO         NOT AVBL
TOMAHAWK       CLOUDY    65  57  75 N7        29.93R
MERRILL        NOT AVBL
$$

WIZ013-073-272300-
NORTHEAST WISCONSIN

CITY           SKY/WX    TMP DP  RH WIND       PRES   REMARKS
IRON MOUNTAIN  PTSUNNY   64  52  64 N21G28    29.87R
MARINETTE      CLOUDY    64  57  77 N20G31    29.79R
$$

WIZ017-030-035>037-045-272300-
CENTRAL WISCONSIN

CITY           SKY/WX    TMP DP  RH WIND       PRES   REMARKS
MEDFORD        NOT AVBL
WAUSAU         CLOUDY    67  59  75 N10G21    29.86R
MOSINEE        PTSUNNY   72  57  60 N16G23    29.87R
MARSHFIELD     PTSUNNY   73  59  61 N16G32    29.87R
WISC RAPIDS      N/A     70  63  78 MISG      29.85R
STEVENS POINT  NOT AVBL
WAUPACA        PTSUNNY   71  65  82 N10       29.81R
SHAWANO        PTSUNNY   73  60  65 N20G29    29.80R
CLINTONVILLE   CLOUDY    72  59  64 N14       29.80R
$$

WIZ038-039-048-051-272300-
FOX VALLEY

CITY           SKY/WX    TMP DP  RH WIND       PRES   REMARKS
NWS GREEN BAY  CLOUDY    68  62  81 N13       29.78R
APPLETON       PTSUNNY   68  63  83 N17G24    29.79R
OSHKOSH        PTSUNNY   69  61  75 N14G23    29.78R
FOND DU LAC    LGT RAIN  67  61  81 NW12      29.78R
$$

WIZ022-050-052-272300-
EAST CENTRAL WISCONSIN

CITY           SKY/WX    TMP DP  RH WIND       PRES   REMARKS
STURGEON BAY   CLOUDY    63  57  82 N24G35    29.78R
MANITOWOC      CLOUDY    70  59  68 N18G24    29.75R
SHEBOYGAN      CLOUDY    70  63  78 N6        29.74S
$$

LMZ563-521-522-541>543-272300-
LAKESHORE

STATION/POSITION TIME  TEMP    WIND        PRES    VSBY  WAVE
                       AIR SEA DIR/SP/G                  HT/PER
                 (UTC) (F)     (DEG/KT/KT) (MB)    (MI)  (FT/S)
SHEBOYGAN LKSHOR 2100          350/ 17/ 19 1007.3R
KEWAUNEE LKSHORE 2100   58      50/  4/  5 1007.8R
TWO RIVERS CG    2100   66 75                N/A       6   2
NORTHPORT PIER   2100   63     340/ 22/ 27 1007.5S
N MID LAKE BUOY  2100   60 56  360/ 16/ 17 1005.9F         2/ 3
S GREEN BAY BUOY 2100   66 68   10/ 16     1008.1R
STURGEON BAY CG  2100   64 61  360/  7     1006.3      6   2
CHAMBERS ISLAND  2100   63     340/ 19/ 25 1007.8S
MENOMINEE LKSHOR 2100   62     360/ 21/ 29 1008.9R
$$



USA.gov is the U.S. government's official web portal to all federal, state and local government web resources and services.